Historyczne dane pomiarowe

Dodano dane terminowe – wersja testowa.

Dane z okresu 1951-2019

Wersja bazy: 1.34 [2019-03-16, lista zmian], aktualizacja planowana na 2019-04-15

Dane meteo z obszaru Polski uzyskane na podstawie danych udostępnionych przez Instytut Meteorologii i Gospodarki Wodnej – Państwowy Instytut Badawczy.

 

Wybierz Datę:    

       

TemperaturaWilgotnośćWiatrCiśnienieOpadyŚniegCzas trwania zjawisk
 Stacja t tx tn tng RH VA  wxwx mslp ppp RRR   cm mm wxwxwxwxwxwxwx
2019-07-31 21.4 26.7 19.6 19.1 87.1 22.1- 0.9--1012.1 987.8 19.8 19.8 0.0x- 2.6-------
2019-07-30 23.4 30.0 18.7 18.3 78.3 21.9- 1.4--1007.5 983.6 3.3 3.3 0.0x- 10.6-------
2019-07-29 22.7 32.7 18.3 17.9 78.0 20.7- 1.0--1005.4 981.4 3.1 3.1 0.0x- 10.2-------
2019-07-28 24.9 32.5 17.8 16.4 62.8 18.8- 2.1--1004.0 980.2 2.6 0.0 2.6x- 10.9-------
2019-07-27 21.8 27.4 15.9 15.0 72.8 18.5- 1.5--1006.8 982.7 0.0 0.0 0.0x- 9.6-------
2019-07-26 22.0 29.0 15.5 15.0 67.8 17.2- 1.5--1011.3 987.1 0.0 0.0 0.0x- 8.7-------
2019-07-25 21.5 28.7 13.9 13.6 70.8 17.1- 0.5--1018.3 993.9 0.0 0.0 0.0x- 12.9-------
2019-07-24 19.2 22.2 17.5 17.4 89.5 19.8- 1.0--1019.0 994.4 4.9 4.9 0.0x- 1.4-------
2019-07-23 17.7 22.0 15.9 16.2 89.1 17.9- 1.0--1020.2 995.5 2.6 2.5 0.1x- 0.4-------
2019-07-22 20.6 26.5 14.8 14.4 74.5 17.3- 0.8--1021.3 996.7 0.5 0.0 0.5x- 10.1-------
2019-07-21 21.2 30.3 17.4 16.2 76.1 18.4- 1.4--1018.0 993.6 32.9 32.7 0.2x- 5.7-------
2019-07-20 22.3 29.3 15.8 14.9 63.1 16.2- 1.1--1016.8 992.5 0.0 0.0 0.0x- 7.8-------
2019-07-19 20.0 29.0 9.9 9.5 58.8 12.5- 1.0--1015.1 990.7 0.0 0.0 0.0x- 9.8-------
2019-07-18 18.3 25.2 10.8 10.2 57.6 11.2- 0.9--1013.6 989.1 0.0 0.0 0.0x- 12.0-------
2019-07-17 17.5 22.0 11.6 11.0 60.9 11.8- 1.8--1012.1 987.6 0.0 0.0 0.0x- 7.3-------
2019-07-16 15.8 22.8 7.7 7.3 69.6 12.0- 1.6--1012.8 988.1 0.0 0.0 0.0x- 10.4-------
2019-07-15 16.5 23.4 9.6 8.6 63.9 11.1- 1.0--1013.3 988.7 0.0 0.0 0.0x- 13.0-------
2019-07-14 15.5 20.6 13.5 13.5 87.3 15.3- 0.9--1011.9 987.2 5.0 5.0 0.0x- 5.8-------
2019-07-13 17.2 23.5 12.9 12.1 75.3 14.4- 1.0--1009.9 985.4 9.6 0.5 9.1x- 2.3-------
2019-07-12 16.7 25.2 6.5 6.1 61.1 10.7- 0.8--1011.5 986.8 0.0 0.0 0.0x- 11.6-------
2019-07-11 14.3 19.6 10.8 10.1 76.6 12.2- 1.1--1012.6 987.7 4.0 4.0 0.0x- 6.7-------
2019-07-10 15.2 21.1 12.8 12.1 66.6 11.3- 1.8--1013.3 988.6 3.2 1.9 1.3x- 4.1-------
2019-07-09 15.0 21.2 8.0 6.8 56.1 9.3- 1.4--1014.0 989.2 0.4 0.3 0.1x- 7.2-------
2019-07-08 16.1 20.0 11.3 9.6 50.3 8.9- 1.9--1013.1 988.4 0.0 0.0 0.0x- 8.8-------
2019-07-07 20.0 26.5 16.5 14.5 60.8 13.9- 1.8--1006.7 982.5 0.1 0.1 0.0x- 9.3-------
2019-07-06 21.9 28.3 17.0 16.6 49.8 12.5- 1.3--1009.8 985.7 0.0 0.0 0.0x- 6.4-------
2019-07-05 18.2 23.7 9.0 8.0 52.5 10.2- 1.4--1014.1 989.6 0.0 0.0 0.0x- 6.3-------
2019-07-04 17.0 23.7 9.7 8.9 50.6 9.0- 1.0--1020.6 995.7 0.0 0.0 0.0x- 11.1-------
2019-07-03 17.4 23.9 11.2 10.2 53.4 9.8- 1.8--1019.3 994.5 0.0 0.0 0.0x- 13.3-------
2019-07-02 22.9 31.0 20.6 20.1 56.4 15.4- 1.5--1015.0 990.8 0.0 0.0 0.0x- 10.2-------
2019-07-01 28.3 36.9 17.1 15.7 44.4 15.4- 1.5--1012.3 988.6 0.0 0.0 0.0x- 12.0-------
2019-06-30 24.9 34.7 13.5 12.4 52.9 15.0- 1.4--1016.9 992.8 0.0 0.0 0.0x- 14.5-------
2019-06-29 20.0 26.9 10.6 9.5 54.4 11.7- 1.3--1020.5 996.0 0.0 0.0 0.0x- 14.4-------
2019-06-28 18.1 23.9 13.3 12.6 65.8 13.2- 1.6--1020.0 995.3 0.0 0.0 0.0x- 8.1-------
2019-06-27 24.9 30.9 23.0 21.2 53.0 16.4- 2.4--1016.2 992.2 0.0 0.0 0.0x- 11.4-------
2019-06-26 27.6 34.9 18.7 17.5 60.6 21.1- 0.9--1021.5 997.5 0.0 0.0 0.0x- 14.3-------
2019-06-25 25.1 32.2 16.7 15.4 66.0 20.0- 1.8--1024.71000.4 0.0 0.0 0.0x- 14.6-------
2019-06-24 21.7 25.9 16.0 14.5 69.0 17.6- 2.0--1023.1 998.6 0.0 0.0 0.0x- 8.6-------
2019-06-23 22.3 27.2 16.6 16.8 61.9 16.2- 2.3--1018.9 994.6 0.0 0.0 0.0x- 8.6-------
2019-06-22 21.0 26.6 16.2 15.3 77.5 18.8- 1.5--1019.4 995.0 0.0 0.0 0.0x- 7.7-------
2019-06-21 21.6 28.2 18.0 17.6 77.8 19.5- 1.0--1014.7 990.4 0.7 0.7 0.0x- 6.7-------
2019-06-20 22.3 28.7 17.2 16.2 76.4 20.0- 0.6--1011.6 987.4 3.2 3.2 0.0x- 6.0-------
2019-06-19 22.9 30.7 16.5 15.5 72.3 19.3- 1.4--1013.4 989.2 0.0 0.0 0.0x- 8.8-------
2019-06-18 19.8 24.5 12.7 12.3 75.9 17.2- 0.9--1019.0 994.4 0.0 0.0 0.0x- 6.1-------
2019-06-17 18.4 22.2 17.3 17.6 79.5 16.6- 1.0--1020.9 996.2 0.1 0.1 0.0x- 4.8-------
2019-06-16 23.5 31.3 18.1 16.4 69.3 19.4- 1.6--1015.1 991.0 6.6 6.5 0.1x- 10.4-------
2019-06-15 27.3 34.6 19.5 18.4 63.8 21.9- 1.5--1013.8 990.0 0.0 0.0 0.0x- 13.5-------
2019-06-14 24.7 30.6 20.1 19.5 71.6 21.9- 1.1--1017.5 993.4 2.0 2.0 0.0x- 10.2-------
2019-06-13 26.4 33.3 18.1 16.4 56.5 18.8- 1.6--1013.3 989.4 0.0 0.0 0.0x- 14.2-------
2019-06-12 26.5 33.0 19.4 17.6 53.3 17.7- 1.9--1013.1 989.2 0.0 0.0 0.0x- 14.0-------
2019-06-11 26.2 32.2 18.9 16.8 55.0 17.5- 2.1--1014.0 990.1 0.0 0.0 0.0x- 14.5-------
2019-06-10 24.5 31.5 16.4 15.4 66.5 19.5- 2.4--1017.5 993.4 0.0 0.0 0.0x- 14.5-------
2019-06-09 21.1 26.0 16.0 16.3 64.9 16.1- 1.3--1024.91000.3 0.0 0.0 0.0x- 11.4-------
2019-06-08 22.7 29.6 15.4 14.0 67.6 18.0- 1.4--1018.1 993.8 0.0 0.0 0.0x- 12.8-------
2019-06-07 21.2 28.1 14.2 13.1 72.8 17.9- 1.1--1014.6 990.3 0.4 0.4 0.0x- 8.2-------
2019-06-06 21.3 27.2 15.3 13.8 63.3 15.3- 1.9--1012.3 988.1 0.0 0.0 0.0x- 11.6-------
2019-06-05 20.7 26.1 14.9 13.7 72.5 17.3- 1.9--1011.9 987.6 0.4 0.4 0.0x- 12.3-------
2019-06-04 21.8 27.9 14.5 13.5 67.3 17.0- 1.4--1014.0 989.7 0.0 0.0 0.0x- 12.6-------
2019-06-03 20.9 27.7 12.4 11.8 64.1 14.9- 1.5--1017.7 993.3 0.0 0.0 0.0x- 13.7-------
2019-06-02 19.9 26.3 12.5 11.8 69.9 15.4- 0.9--1019.3 994.7 0.0 0.0 0.0x- 12.7-------
45.7 ms

 

Źródłem pochodzenia danych jest Instytut Meteorologii i Gospodarki Wodnej – Państwowy Instytut Badawczy. Dane Instytutu Meteorologii i Gospodarki Wodnej – Państwowego Instytutu Badawczego zostały przetworzone.

Dane źródłowe można odnaleźć na stronie https://dane.imgw.pl